Previsão horária em Cedynia

Hoje, 29 Julho, Quinta-feira

Tempo Temperatura Precipitação Vento Pressão Humidade
00:00 +18°C° 0 mm 3 m/s 756 mmHg 85%
01:00 +17°C° 0 mm 3 m/s 756 mmHg 88%
02:00 +17°C° 0 mm 3 m/s 756 mmHg 89%
03:00 +17°C° 0 mm 2 m/s 756 mmHg 90%
04:00 +16°C° 0 mm 2 m/s 756 mmHg 91%
05:00 +18°C° 0 mm 3 m/s 756 mmHg 84%
06:00 +19°C° 0 mm 4 m/s 756 mmHg 78%
07:00 +20°C° 0 mm 5 m/s 756 mmHg 72%
08:00 +21°C° 0.1 mm 5 m/s 756 mmHg 66%
09:00 +22°C° 0.1 mm 6 m/s 756 mmHg 59%
10:00 +23°C° 0.1 mm 7 m/s 756 mmHg 52%
11:00 +23°C° 0.1 mm 6 m/s 755 mmHg 51%
12:00 +24°C° 0.1 mm 6 m/s 755 mmHg 49%
13:00 +24°C° 0.1 mm 6 m/s 755 mmHg 48%
14:00 +23°C° 0 mm 6 m/s 755 mmHg 49%
15:00 +23°C° 0 mm 6 m/s 756 mmHg 49%
16:00 +22°C° 0 mm 5 m/s 756 mmHg 50%
17:00 +21°C° 0 mm 5 m/s 756 mmHg 51%
18:00 +21°C° 0 mm 4 m/s 756 mmHg 52%
19:00 +20°C° 0 mm 3 m/s 756 mmHg 53%
20:00 +19°C° 0 mm 3 m/s 756 mmHg 57%
21:00 +18°C° 0 mm 3 m/s 756 mmHg 60%
22:00 +17°C° 0 mm 3 m/s 756 mmHg 64%
23:00 +16°C° 0 mm 3 m/s 756 mmHg 67%

Amanhã, 30 Julho, Sexta-feira

Tempo Temperatura Precipitação Vento Pressão Humidade
00:00 +14°C° 0 mm 3 m/s 756 mmHg 71%
01:00 +14°C° 0 mm 3 m/s 756 mmHg 74%
02:00 +13°C° 0 mm 3 m/s 756 mmHg 76%
03:00 +13°C° 0 mm 3 m/s 756 mmHg 77%
04:00 +13°C° 0 mm 3 m/s 756 mmHg 79%
05:00 +14°C° 0 mm 4 m/s 756 mmHg 75%
06:00 +15°C° 0 mm 4 m/s 756 mmHg 72%
07:00 +16°C° 0 mm 5 m/s 756 mmHg 68%
08:00 +19°C° 0 mm 5 m/s 756 mmHg 62%
09:00 +20°C° 0 mm 6 m/s 755 mmHg 55%
10:00 +22°C° 0 mm 6 m/s 755 mmHg 48%
11:00 +23°C° 0 mm 6 m/s 755 mmHg 46%
12:00 +24°C° 0 mm 6 m/s 755 mmHg 43%
13:00 +26°C° 0 mm 6 m/s 754 mmHg 40%
14:00 +26°C° 0 mm 6 m/s 754 mmHg 41%
15:00 +26°C° 0 mm 6 m/s 754 mmHg 43%
16:00 +26°C° 0 mm 5 m/s 754 mmHg 44%
17:00 +25°C° 0 mm 4 m/s 754 mmHg 50%
18:00 +24°C° 0 mm 3 m/s 754 mmHg 56%
19:00 +23°C° 0 mm 1 m/s 753 mmHg 62%
20:00 +22°C° 0 mm 1 m/s 753 mmHg 64%
21:00 +21°C° 0 mm 1 m/s 753 mmHg 67%
22:00 +20°C° 0 mm 1 m/s 753 mmHg 69%
23:00 +18°C° 0 mm 2 m/s 753 mmHg 70%

Depois de amanhã, 31 Julho, Sábado

Tempo Temperatura Precipitação Vento Pressão Humidade
00:00 +18°C° 0 mm 2 m/s 753 mmHg 71%
01:00 +18°C° 0 mm 3 m/s 753 mmHg 73%
02:00 +18°C° 0 mm 3 m/s 752 mmHg 74%
03:00 +18°C° 0 mm 3 m/s 752 mmHg 75%
04:00 +18°C° 0 mm 3 m/s 752 mmHg 76%
05:00 +18°C° 0 mm 3 m/s 752 mmHg 74%
06:00 +19°C° 0 mm 4 m/s 752 mmHg 72%
07:00 +20°C° 0 mm 4 m/s 752 mmHg 70%
08:00 +21°C° 0 mm 5 m/s 752 mmHg 63%
09:00 +22°C° 0 mm 6 m/s 752 mmHg 55%
10:00 +23°C° 0 mm 7 m/s 752 mmHg 48%
11:00 +23°C° 0 mm 7 m/s 752 mmHg 49%
12:00 +23°C° 0 mm 7 m/s 752 mmHg 51%
13:00 +22°C° 0 mm 7 m/s 752 mmHg 53%
14:00 +23°C° 0 mm 7 m/s 752 mmHg 51%
15:00 +23°C° 0 mm 7 m/s 752 mmHg 50%
16:00 +23°C° 0 mm 8 m/s 752 mmHg 49%
17:00 +22°C° 0 mm 7 m/s 753 mmHg 54%
18:00 +21°C° 0 mm 7 m/s 753 mmHg 58%
19:00 +21°C° 0 mm 6 m/s 753 mmHg 62%
20:00 +20°C° 0 mm 6 m/s 753 mmHg 67%
21:00 +19°C° 0 mm 5 m/s 753 mmHg 71%
22:00 +17°C° 0 mm 5 m/s 753 mmHg 75%
23:00 +16°C° 0 mm 5 m/s 754 mmHg 79%

1 Agosto, Domingo

Tempo Temperatura Precipitação Vento Pressão Humidade
00:00 +16°C° 0 mm 5 m/s 754 mmHg 83%
01:00 +15°C° 0 mm 4 m/s 754 mmHg 86%
02:00 +15°C° 0 mm 4 m/s 754 mmHg 90%
03:00 +14°C° 0 mm 3 m/s 754 mmHg 93%
04:00 +14°C° 0 mm 2 m/s 754 mmHg 97%
05:00 +14°C° 0 mm 3 m/s 755 mmHg 91%
06:00 +16°C° 0 mm 3 m/s 755 mmHg 85%
07:00 +17°C° 0 mm 3 m/s 755 mmHg 79%
08:00 +18°C° 0 mm 3 m/s 755 mmHg 71%
09:00 +19°C° 0 mm 3 m/s 755 mmHg 64%
10:00 +21°C° 0 mm 3 m/s 755 mmHg 56%
11:00 +21°C° 0 mm 3 m/s 755 mmHg 52%
12:00 +22°C° 0 mm 3 m/s 755 mmHg 48%
13:00 +24°C° 0 mm 3 m/s 754 mmHg 45%
14:00 +24°C° 0 mm 3 m/s 754 mmHg 45%
15:00 +24°C° 0 mm 3 m/s 754 mmHg 44%
16:00 +25°C° 0 mm 3 m/s 754 mmHg 44%
17:00 +22°C° 0 mm 3 m/s 755 mmHg 51%
18:00 +21°C° 0 mm 3 m/s 755 mmHg 57%
19:00 +20°C° 0 mm 3 m/s 755 mmHg 64%
20:00 +19°C° 0 mm 2 m/s 755 mmHg 68%
21:00 +17°C° 0 mm 2 m/s 755 mmHg 71%
22:00 +16°C° 0 mm 1 m/s 756 mmHg 75%
23:00 +16°C° 0 mm 1 m/s 756 mmHg 76%

2 Agosto, Segunda-feira

Tempo Temperatura Precipitação Vento Pressão Humidade
00:00 +16°C° 0 mm 1 m/s 756 mmHg 76%
01:00 +16°C° 0 mm 1 m/s 756 mmHg 77%
02:00 +16°C° 0 mm 1 m/s 756 mmHg 78%
03:00 +16°C° 0 mm 1 m/s 756 mmHg 80%
04:00 +15°C° 0 mm 1 m/s 756 mmHg 82%
05:00 +16°C° 0 mm 1 m/s 756 mmHg 79%
06:00 +18°C° 0 mm 1 m/s 756 mmHg 76%
07:00 +19°C° 0 mm 1 m/s 756 mmHg 73%
08:00 +18°C° 0.1 mm 2 m/s 756 mmHg 72%
09:00 +19°C° 0.1 mm 2 m/s 756 mmHg 71%
10:00 +19°C° 0.1 mm 3 m/s 757 mmHg 70%
11:00 +19°C° 0.3 mm 3 m/s 757 mmHg 72%
12:00 +19°C° 0.3 mm 3 m/s 757 mmHg 74%
13:00 +19°C° 0.3 mm 3 m/s 757 mmHg 76%
14:00 +20°C° 0.1 mm 3 m/s 757 mmHg 73%
15:00 +20°C° 0.1 mm 3 m/s 757 mmHg 69%
16:00 +21°C° 0.1 mm 3 m/s 757 mmHg 65%
17:00 +20°C° 0.2 mm 3 m/s 757 mmHg 69%
18:00 +19°C° 0.2 mm 3 m/s 757 mmHg 73%
19:00 +18°C° 0.2 mm 2 m/s 757 mmHg 77%
20:00 +17°C° 0 mm 2 m/s 757 mmHg 79%
21:00 +16°C° 0 mm 2 m/s 758 mmHg 81%
22:00 +16°C° 0 mm 2 m/s 758 mmHg 82%
23:00 +15°C° 0 mm 2 m/s 758 mmHg 84%

3 Agosto, Terça-feira

Tempo Temperatura Precipitação Vento Pressão Humidade
00:00 +14°C° 0 mm 2 m/s 758 mmHg 85%
01:00 +12°C° 0 mm 3 m/s 759 mmHg 86%
02:00 +13°C° 0 mm 2 m/s 759 mmHg 88%
03:00 +13°C° 0 mm 2 m/s 759 mmHg 89%
04:00 +12°C° 0 mm 2 m/s 759 mmHg 91%
05:00 +13°C° 0 mm 2 m/s 759 mmHg 86%
06:00 +14°C° 0 mm 3 m/s 759 mmHg 82%
07:00 +16°C° 0 mm 3 m/s 759 mmHg 78%
08:00 +18°C° 0 mm 3 m/s 759 mmHg 69%
09:00 +19°C° 0 mm 3 m/s 759 mmHg 61%
10:00 +21°C° 0 mm 3 m/s 759 mmHg 53%
11:00 +22°C° 0 mm 3 m/s 759 mmHg 49%
12:00 +24°C° 0 mm 3 m/s 759 mmHg 45%
13:00 +25°C° 0 mm 3 m/s 758 mmHg 41%
14:00 +25°C° 0 mm 3 m/s 758 mmHg 41%
15:00 +25°C° 0 mm 3 m/s 758 mmHg 42%
16:00 +25°C° 0 mm 2 m/s 757 mmHg 42%
17:00 +24°C° 0 mm 2 m/s 757 mmHg 47%
18:00 +23°C° 0 mm 1 m/s 757 mmHg 52%
19:00 +22°C° 0 mm 1 m/s 757 mmHg 57%
20:00 +21°C° 0 mm 1 m/s 758 mmHg 59%
21:00 +20°C° 0 mm 1 m/s 758 mmHg 61%
22:00 +18°C° 0 mm 2 m/s 758 mmHg 63%
23:00 +17°C° 0 mm 2 m/s 758 mmHg 63%
Mostrar mais

Necessitamos do seu Consentimento

A Meteoprog e os seus Fornecedores de Serviços podem armazenar e aceder a dados pessoais como cookies, identificadores do dispositivo ou outras tecnologias semelhantes existentes no seu dispositivo e processar estes dados para personalizar conteúdos e anúncios, assim como funcionalidades nas redes sociais e análise de tráfego.

  • Armazenar e/ou aceder a informações no seu dispositivo

    Os cookies, identificadores do dispositivo ou outras informações podem ser armazenados ou acedidos no seu dispositivo, para os fins acima indicados.

  • Anúncios e conteúdos personalizados, medição de anúncios e conteúdos, dados sobre o público-alvo e desenvolvimento de produtos

    Os anúncios e os conteúdos podem ser personalizados com base num perfil. Podem ser adicionados dados adicionais para uma maior personalização dos anúncios e dos conteúdos. A eficácia dos anúncios e dos conteúdos pode ser medida. Podem ser obtidas informações sobre o público que visualizou os anúncios e os conteúdos. Estes dados podem ser usados para desenvolver ou melhorar sistemas, softwares ou a experiência do utilizador.

Ao clicar em "Eu concordo”, permitirá o uso de cookies, identificadores do dispositivo e web beacons mencionados ou outras tecnologias semelhantes. As configurações do navegador do seu dispositivo podem ser alteradas.

Para certos fins, podem ser invocados interesses legítimos ao invés de consentimento. Pode ler mais informação sobre este assunto na nossa Política de Privacidade e Cookies.